Location: Gaast
(52.9002°N, 5.8891°E)
Time: 23:52:25
(UTC+00:00)

Landsat 7 - Pass Details

Date: 18 November 2025
Orbit: 680 x 682 km, 97.9° (Epoch: 04 December)

Event Time Altitude Azimuth Distance (km) Brightness Sun altitude
Rises 16:48:13 0° 157° (SSE) 3,033 7.1 -10.5°
Reaches altitude 10° 16:50:26 10° 156° (SSE) 2,122 6.2 -10.8°
Maximum altitude 16:55:04 73° 73° (ENE) 719 3.7 -11.5°
Drops below altitude 10° 16:59:44 10° 349° (N) 2,136 6.3 -12.1°
Sets 17:01:59 0° 347° (NNW) 3,056 7.1 -12.5°
